Regional Weather Roundup
Issued by NWS

Home | Current Version | Previous Version | Graphics & Text | Print | Product List | Glossary On
Versions: 1 2 3 4 5 6 7 8 9 10 11 12 13 14 15 16 17 18 19 20 21 22 23 24 25 26 27 28 29 30 31 32 33 34 35 36 37 38 39 40 41 42 43 44 45 46 47 48 49 50
000
ASUS45 KSLC 291310
RWRUT

UTAH REGIONAL WEATHER ROUNDUP
NATIONAL WEATHER SERVICE SALT LAKE CITY UT
700 AM MDT FRI MAY 29 2015

UTZ001>011-023>025-291400-

NORTHERN UTAH

CITY           SKY/WX    TMP DP  RH WIND       PRES   REMARKS
BRIGHAM CITY   CLEAR     47  44  86 CALM      30.19R
HILL AFB       CLEAR     48  40  72 E17G25    30.19R
LOGAN          CLEAR     43  41  93 CALM      30.22R
OGDEN          CLEAR     50  43  77 S5        30.18R
PROVO AIRPORT  CLEAR     48  41  76 CALM      30.21R
SALT LAKE CITY CLEAR     52  44  74 S5        30.17R
VERNAL         CLOUDY    48  41  76 W3        30.23R
WENDOVER       CLEAR     54  48  82 S6        30.17R
HEBER CITY     CLEAR     37  36  93 CALM      30.26R
WEST JORDAN    CLEAR     48  45  87 S5        30.20R

$$

UTZ012>022-026-027-291400-

SOUTHERN/CENTRAL UTAH

CITY           SKY/WX    TMP DP  RH WIND       PRES   REMARKS
BLANDING       SUNNY     52  39  61 N6        30.26R
BRYCE CANYON   PTCLDY    44  38  79 CALM      30.29R
CEDAR CITY     PTCLDY    50  45  83 NW8       30.17S
DELTA          CLEAR     47  42  83 CALM      30.18R
HANKSVILLE     CLEAR     50  41  71 CALM      30.19R
MILFORD        PTCLDY    48  44  86 CALM      30.17R
MOAB/CYNLANDS  SUNNY     55  42  61 SE5       30.16R
PRICE          CLEAR     50  35  56 N9        30.21R
ST GEORGE      SUNNY     66  37  34 CALM      30.05R
KANAB          PTCLDY    57  41  54 NW9       30.18R

$$

REGIONAL REPORTS     COLORADO/ARIZONA

CITY           SKY/WX    TMP DP  RH WIND       PRES   REMARKS
CRAIG, CO      PTSUNNY   41  40  96 CALM      30.28R
GRAND JUNCTION SUNNY     47  45  93 CALM      30.21R
RIFLE          SUNNY     43  39  86 E3        30.26R
MONTROSE       SUNNY     45  39  79 SE8       30.26R
CORTEZ         SUNNY     43  38  82 E6        30.21R
PAGE, AZ       MOCLDY    68  42  38 CALM      30.12R
GRAND CANYON   PTCLDY    41  38  89 CALM      30.24R
KINGMAN        CLEAR     61  23  23 SE9       30.02R
FLAGSTAFF      PTCLDY    42  30  62 CALM      30.26R

$$

REGIONAL REPORTS    NEVADA/IDAHO/WYOMING

CITY           SKY/WX    TMP DP  RH WIND       PRES   REMARKS
LAS VEGAS, NV  PTCLDY    76  36  23 W5        29.90R
ELY            CLEAR     42  39  89 S9        30.24R
ELKO           CLEAR     48  43  82 CALM      30.18R
POCATELLO, ID  CLEAR     46  45  96 CALM      30.22R
BURLEY         PTCLDY    52  46  80 NE10      30.18R
EVANSTON, WY   MOSUNNY   40  35  83 CALM      30.29R
ROCK SPRINGS   CLOUDY    43  39  86 CALM      30.30R
KEMMERER       SUNNY     37  36  93 N6        30.30S WCI  33

$$


USA.gov is the U.S. government's official web portal to all federal, state and local government web resources and services.